星链-36807(STARLINK-36807)

导读 | 豆包AI

STARLINK-36807是美国SpaceX公司星链(Starlink)星座的组网卫星,于2026年2月15日发射升空。作为星链全球卫星互联网项目的一员,它运行在近地轨道,通过与地面站协同工作,为偏远地区、海洋航行等传统网络覆盖不足场景提供低延迟、高速率的宽带互联网服务,进一步扩充了星链星座的在轨规模,推动全球网络覆盖能力提升。

基本信息
目录编号:
67810
目录名称:
STARLINK-36807
国际标识:
2026-032P
轨道中心:
EARTH
卫星名称:
星链-36807
卫星全名:
星链-36807(STARLINK-36807)
卫星状态:
在轨 (已飞行27 天)
发射日期:
2026-02-15 UTC
国别 :
美国 (US)
星等 :
--
轨道信息
数据来源 国际轨道数据
星历时间: 2026-03-14T09:06:34+0800
15小时前
查看轨道信息
半长轴: 6722.047km
偏心率: 0.0001787
轨道倾角: 97.284°
近地点辐角 63.271°
升交点赤经 259.815°
平近点角 296.874°
近地点: 342.708km
远地点: 345.112km
周期: 91.414分钟
每日圈数: 15.752538
详细信息
固有亮度:
5
最大亮度:
2.5
卫星平台:
Starlink V1.0
覆盖范围:
全球
运营商:
太空探索技术公司
运营商所在国:
美国
制造商(研发单位):
太空探索技术公司
制造商所在国:
美国
使用方式:
暂无
卫星简介
Starlink 计划是 SpaceX 推出的全球卫星互联网项目,通过发射低轨道卫星,为全球尤其是偏远地区提供高速、低延迟的互联网服务。自 2019 年起,Starlink 已部署数千颗卫星,旨在缩小全球数字鸿沟,推动互联网普及。该项目还为军事、航空等行业提供通信支持,带来广泛经济效益。
2D轨道图
3D轨道图
轨道高度分析图
轨道倾角分析图
轨道综合分析图
查看轨道综合分析图